Hourly Data Report for May 03, 2003

TORONTO CITY
ONTARIO

43°40'00.000" N
79°24'00.000" W
112.50 m
6158355
71508
XTO

Download Data

Hourly Data (May 2003)
Hourly Data Report for May 3, 2003
TIME
LST
Temp Definition
°C
Dew Point Definition
°C
Rel Hum Definition
%
Precip. Amount Definition
mm

Wind Dir Definition
10's deg

Wind Spd Definition
km/h
Visibility Definition
km
Stn Press Definition
kPa
Hmdx Definition


Wind Chill Definition


Weather Definition


00:00 7.5 4.5 81   LegendMM LegendMM LegendMM 100.48     LegendNANA
01:00 7.3 4.3 81   LegendMM LegendMM LegendMM 100.50     LegendNANA
02:00 7.4 4.5 82   LegendMM LegendMM LegendMM 100.53     LegendNANA
03:00 6.7 4.4 85   LegendMM LegendMM LegendMM 100.61     LegendNANA
04:00 6.8 4.0 82   LegendMM LegendMM LegendMM 100.65     LegendNANA
05:00 6.3 -1.2 59   LegendMM LegendMM LegendMM 100.69     LegendNANA
06:00 6.4 -4.5 46   LegendMM LegendMM LegendMM 100.77     LegendNANA
07:00 7.7 -5.1 40   LegendMM LegendMM LegendMM 100.85     LegendNANA
08:00 9.4 -6.1 33   LegendMM LegendMM LegendMM 100.90     LegendNANA
09:00 9.8 -6.2 32   LegendMM LegendMM LegendMM 100.95     LegendNANA
10:00 9.6 -5.6 34   LegendMM LegendMM LegendMM 100.97     LegendNANA
11:00 10.0 -4.1 37   LegendMM LegendMM LegendMM 100.94     LegendNANA
12:00 9.3 -3.4 41   LegendMM LegendMM LegendMM 100.92     LegendNANA
13:00 9.9 -3.8 38   LegendMM LegendMM LegendMM 100.89     LegendNANA
14:00 9.0 -4.4 38   LegendMM LegendMM LegendMM 100.88     LegendNANA
15:00 9.9 -3.8 38   LegendMM LegendMM LegendMM 100.85     LegendNANA
16:00 10.4 -6.0 31   LegendMM LegendMM LegendMM 100.82     LegendNANA
17:00 10.4 -5.3 33   LegendMM LegendMM LegendMM 100.79     LegendNANA
18:00 10.3 -4.8 34   LegendMM LegendMM LegendMM 100.76     LegendNANA
19:00 10.2 -5.0 34   LegendMM LegendMM LegendMM 100.76     LegendNANA
20:00 9.8 -4.2 37   LegendMM LegendMM LegendMM 100.76     LegendNANA
21:00 9.5 -3.3 40   LegendMM LegendMM LegendMM 100.78     LegendNANA
22:00 9.7 -3.6 39   LegendMM LegendMM LegendMM 100.82     LegendNANA
23:00 9.2 -2.3 44   LegendMM LegendMM LegendMM 100.85     LegendNANA

Notes on Data Quality.

Legend

  • E = Estimated
  • M = Missing
  • NA = Not Available*
  • [empty] = Indicates an unobserved value
Date modified: